Temp
26 26 30 32 29 31 34 35 36 35 35 35 34 35 34 33 32 29 29 30 28 28 24 22 22 22 21 21 22 21 21 21 22 22 21 21 21 21 22 21 21 21 21 21 21 21 21 21 21
30 29 30 33 30 31 33 35 35 36 35 35 34 34 34 31 32 31 30 29 28 27 24 23 22 22 21 21 22 22 21 21 21 21 21 22 21 21 21 21 21 21 21 21 21 21 21 21 21
28 29 32 30 28 32 35 36 35 35 35 34 34 34 34 31 32 31 29 28 28 27 26 23 22 21 21 22 21 21 21 22 21 22 22 22 21 21 21 21 21 21 21 21 21 21 21 21 21
31 34 35 29 36 37 37 36 36 35 35 35 35 33 32 32 32 30 29 29 29 29 26 23 21 21 21 21 21 21 21 21 21 22 22 21 21 21 21 21 21 22 21 21 21 21 21 21 21
32 35 33 36 36 37 37 37 36 35 35 35 35 33 31 31 31 29 29 29 29 29 25 23 21 21 21 21 21 22 21 21 21 21 21 21 21 21 21 21 21 21 21 21 21 21 21 22 22
34 35 31 35 36 36 36 37 37 36 36 35 35 32 32 30 30 30 29 30 30 30 27 23 21 21 21 21 21 22 22 21 21 22 21 21 21 21 21 21 21 21 21 21 21 21 21 21 21
34 29 36 36 36 36 36 37 37 36 35 35 35 33 31 31 30 30 29 30 30 30 28 25 24 22 21 21 21 21 21 21 21 21 21 21 21 21 21 21 22 21 21 21 21 21 21 21 21
34 36 36 37 35 35 36 37 36 37 35 36 36 34 31 32 30 30 29 30 30 30 29 28 26 24 24 23 21 21 21 21 21 21 21 21 21 21 22 23 23 22 22 22 22 22 22 22 23
35 30 32 36 26 36 36 36 37 37 35 35 35 36 34 31 31 30 30 30 30 30 29 29 26 26 26 25 22 21 21 21 21 21 21 22 24 23 24 23 24 23 23 23 23 23 24 25 25
27 30 36 38 37 37 37 37 36 36 35 35 35 35 32 31 31 31 31 31 30 30 30 30 29 28 26 27 23 24 24 24 24 24 23 24 27 27 27 25 24 24 25 25 25 25 25 26 26
32 36 38 37 38 38 37 37 38 36 36 36 34 33 33 32 32 32 32 31 31 30 30 30 30 28 28 29 26 27 27 27 26 25 24 26 27 26 27 27 26 26 25 27 26 26 27 28 28
33 38 37 37 38 38 37 37 37 37 37 37 36 34 34 33 33 33 33 32 31 30 30 29 30 29 29 29 28 28 28 28 27 26 24 26 26 26 27 28 27 26 27 27 27 28 27 28 28
36 38 38 38 38 38 37 37 37 37 37 37 36 34 34 34 34 33 33 32 32 30 30 29 29 27 28 27 28 28 29 27 27 26 24 26 26 27 26 26 27 27 28 28 28 28 27 27 28
38 38 38 37 38 38 37 37 36 37 37 36 35 35 35 35 34 33 33 32 32 31 30 29 28 26 27 26 26 27 28 27 27 27 26 24 26 26 27 26 26 28 28 28 27 27 27 28 28
39 37 38 38 38 37 38 36 37 37 37 36 35 35 35 35 34 34 33 32 32 31 30 30 28 26 26 25 25 26 27 27 27 27 27 25 25 26 25 27 28 28 28 26 26 26 28 28 29
38 38 29 36 38 38 37 28 36 38 37 36 35 35 35 35 34 34 33 32 31 31 30 29 28 27 26 25 25 26 27 28 28 28 27 25 25 25 26 27 28 28 27 28 28 28 28 27 28
36 26 27 36 38 38 37 36 37 39 37 37 36 35 35 35 35 34 33 32 32 31 30 29 28 28 27 25 25 26 27 27 28 28 28 26 26 26 25 27 28 26 27 28 28 28 27 28 29
28 32 32 36 27 38 37 36 38 37 38 37 36 36 36 35 35 34 33 33 32 30 29 28 28 28 27 26 25 26 27 27 28 28 29 28 27 26 26 27 27 26 28 28 25 25 24 25 25
38 37 35 37 38 38 38 37 38 38 39 38 37 36 36 36 37 35 34 33 32 31 29 28 27 27 27 26 26 27 28 28 29 29 28 28 26 27 26 27 27 27 27 24 23 24 24 25 22
37 32 34 38 38 38 38 38 39 39 39 39 39 38 37 37 37 36 34 33 33 32 30 28 28 27 26 27 27 28 29 29 29 29 28 27 27 27 27 26 27 25 23 22 22 21 22 22 20
36 37 37 37 39 39 37 28 39 39 40 39 39 39 39 38 37 36 36 34 33 32 31 29 28 27 26 27 27 28 28 29 29 29 29 28 26 26 26 26 25 23 24 22 22 21 20 19 19
33 38 38 38 38 34 38 30 26 32 39 38 38 38 39 39 38 37 36 35 34 33 32 30 28 27 26 26 28 28 28 29 29 29 28 24 23 23 24 24 23 23 23 22 21 20 21 20 19
38 38 38 38 39 36 36 39 36 33 38 39 39 39 39 39 39 38 36 34 34 34 33 31 29 28 27 26 28 27 27 28 29 26 24 22 22 22 21 23 22 22 21 21 20 20 21 21 20
38 38 39 40 40 37 38 38 38 38 38 38 38 38 38 37 38 39 38 35 34 33 32 32 30 27 26 26 25 27 26 26 27 26 24 25 25 22 21 21 21 21 21 20 19 21 21 20 19
39 39 37 38 39 39 39 38 39 39 38 37 36 36 36 36 37 37 37 37 34 33 32 30 29 26 25 26 25 25 25 25 25 23 24 25 23 23 21 20 19 19 19 20 20 20 20 20 19
38 38 38 36 38 39 39 37 39 40 39 38 38 36 36 35 36 37 37 36 36 32 30 28 26 25 24 23 22 23 23 23 22 21 20 20 20 19 19 18 18 18 19 19 19 19 19 19 20
38 38 40 38 39 39 40 40 41 40 40 39 38 38 38 35 35 36 36 34 33 32 30 27 25 23 22 22 21 22 21 21 20 20 21 21 18 18 18 18 18 18 18 18 18 18 18 19 20
38 39 37 39 36 36 38 38 39 38 38 38 37 38 37 36 33 33 33 32 31 31 29 28 27 24 23 21 21 20 19 20 20 19 20 20 18 18 17 17 18 18 17 17 17 18 18 19 19
39 38 38 39 38 37 37 38 40 38 37 37 37 38 36 36 33 32 32 30 28 28 27 27 26 24 22 20 20 20 20 22 21 20 18 19 18 17 17 16 16 16 16 17 17 18 17 18 19
39 38 39 38 37 38 38 37 40 38 38 38 37 36 35 34 32 30 29 28 26 25 24 26 26 24 22 20 19 19 21 22 20 17 17 18 17 17 16 16 16 16 16 16 17 17 18 18 18
Height
765 763 761 758 779 770 767 765 746 762 762 752 756 757 764 764 773 797 788 792 798 803 811 815 817 819 821 823 824 826 828 830 831 833 833 834 835 836 837 838 839 839 839 840 841 842 842 843 844
764 762 759 750 786 790 778 755 761 753 756 755 762 762 765 782 770 781 789 796 801 805 812 816 818 820 822 825 827 828 830 831 832 834 835 835 836 838 839 840 841 841 842 843 844 844 845 845 846
764 761 754 762 782 784 771 753 756 758 757 760 766 760 766 782 779 783 792 799 801 806 811 815 819 822 825 826 828 829 831 832 834 835 836 837 838 839 841 842 843 843 844 845 846 847 847 847 848
761 752 744 777 759 749 752 752 753 759 758 757 758 776 776 776 781 787 795 799 802 805 811 817 821 824 826 826 828 830 831 833 835 836 838 839 840 842 844 844 845 846 847 848 848 849 849 849 849
758 749 766 759 758 751 748 749 749 758 759 761 758 777 784 782 785 792 796 800 803 806 814 819 822 824 825 827 830 831 833 835 836 838 839 841 842 843 845 846 847 848 849 850 851 851 851 851 850
755 748 781 774 765 755 751 747 750 753 756 762 765 778 782 786 789 793 797 800 802 805 813 821 823 825 826 828 830 831 834 836 838 839 841 841 843 844 845 847 848 849 850 851 852 853 852 852 851
755 775 761 761 765 761 759 747 749 755 761 765 761 776 783 786 790 793 797 799 801 805 811 820 823 826 828 830 831 833 835 837 838 840 841 843 844 846 847 848 849 850 851 851 852 852 852 852 851
750 743 759 751 765 769 756 751 750 748 762 755 755 772 788 783 790 795 799 799 802 805 809 815 821 826 828 830 832 834 836 838 839 840 842 844 845 847 847 848 849 850 850 851 851 851 850 849 847
744 774 779 759 797 760 751 758 750 751 762 761 762 760 771 783 789 793 798 801 804 806 809 812 821 823 826 829 833 834 837 838 840 841 843 844 846 847 848 849 849 849 850 850 850 849 848 844 838
752 775 755 742 744 751 750 749 755 759 762 765 766 766 777 785 788 790 795 797 802 805 808 810 815 820 825 826 831 834 836 838 839 841 843 844 844 846 847 849 850 850 850 850 849 848 846 838 824
756 753 741 746 741 741 750 750 745 755 759 756 768 772 780 784 788 789 792 794 800 804 807 810 813 818 820 822 829 831 833 835 839 842 844 843 845 847 848 848 850 850 849 848 848 847 844 838 825
765 741 744 746 740 744 751 748 750 749 754 749 759 768 777 781 783 785 788 792 797 802 806 810 812 817 818 821 826 828 829 832 837 840 843 843 845 846 846 846 847 849 850 849 849 846 844 838 830
752 739 737 741 742 739 745 752 751 754 750 752 761 768 773 776 780 782 786 790 795 800 804 808 813 818 819 822 826 827 828 833 835 838 841 843 844 845 846 847 847 848 848 848 848 847 844 839 831
737 738 739 744 743 744 749 752 752 751 749 756 762 767 769 772 776 780 785 788 793 799 803 807 813 818 821 824 826 829 829 832 835 837 840 843 844 845 845 847 847 847 848 848 848 846 845 840 831
734 748 741 742 742 746 740 758 755 746 749 758 763 765 767 770 774 778 784 788 793 797 801 805 812 817 821 824 828 830 830 831 833 835 838 841 843 844 846 845 846 846 847 848 847 846 844 840 835
746 746 798 752 741 739 747 800 751 740 748 756 761 763 766 768 772 776 782 787 792 795 800 804 809 814 820 823 826 827 828 830 832 834 836 839 841 843 844 844 843 843 846 845 844 844 842 841 838
756 813 806 762 736 739 748 761 742 733 744 749 755 760 763 765 769 774 779 785 789 794 800 804 808 811 816 820 824 826 826 827 829 831 833 837 840 842 843 843 842 844 845 843 843 842 843 841 838
807 786 781 762 778 743 751 755 735 735 737 744 748 752 758 761 764 770 776 780 785 792 799 805 808 810 814 818 821 823 824 826 826 828 830 832 836 840 841 842 842 844 842 842 843 845 845 845 843
748 756 773 751 737 746 748 747 740 731 730 737 742 747 751 756 757 764 771 776 781 788 795 801 806 810 813 816 818 819 820 823 824 825 828 831 834 835 838 839 838 839 837 840 844 847 847 846 845
753 783 772 746 738 746 742 745 729 727 729 729 731 737 742 747 751 756 765 771 777 782 790 796 801 806 811 814 816 816 817 818 820 822 825 830 832 833 833 836 836 835 830 841 844 846 847 847 847
761 761 760 758 738 735 749 790 738 728 725 725 725 724 728 737 742 749 757 765 771 776 784 790 795 800 804 808 813 815 816 816 817 818 819 823 829 830 833 833 834 835 839 841 843 845 846 845 847
789 750 750 751 750 778 738 811 797 759 732 737 732 730 727 727 734 742 749 757 765 770 776 783 789 794 799 803 806 810 813 814 816 816 816 820 826 826 831 833 834 835 837 838 840 840 838 839 844
758 746 749 747 747 760 763 749 760 756 746 739 729 729 727 725 725 730 740 753 754 763 769 776 783 790 795 798 801 806 810 811 813 814 818 820 823 824 828 830 831 832 833 834 835 835 833 835 838
743 747 741 735 730 775 755 759 761 749 747 738 734 732 729 727 724 725 731 741 752 757 765 769 775 784 792 796 798 802 805 808 811 813 818 819 822 825 829 829 829 829 830 831 831 830 829 833 836
742 743 769 772 760 765 743 760 746 735 738 742 744 739 735 732 728 728 731 735 742 752 761 766 770 779 787 792 795 800 803 804 810 814 817 818 821 824 826 828 828 828 826 827 827 826 827 829 834
754 756 771 797 778 764 739 770 746 723 727 729 729 735 735 736 730 729 728 734 739 750 761 767 771 775 783 789 787 793 796 800 811 812 814 819 820 823 825 826 826 826 827 827 825 824 823 828 832
758 766 737 765 750 759 743 736 720 718 724 723 730 729 730 735 736 733 732 737 743 747 755 763 770 773 777 785 791 793 795 798 811 815 817 813 812 815 823 824 823 825 824 826 823 822 825 825 830
750 739 772 753 791 795 762 763 750 739 736 733 735 732 729 731 741 741 742 745 749 751 756 762 765 768 767 775 783 794 800 803 815 815 813 806 811 810 817 821 821 822 823 825 824 826 825 828 832
750 757 750 751 762 783 783 759 719 735 736 738 733 726 731 732 739 742 745 749 753 754 758 760 764 769 770 773 775 779 792 792 792 790 795 803 808 811 815 816 820 821 821 822 825 827 828 830 831
739 750 746 765 774 753 759 762 716 724 724 724 728 727 732 736 741 748 752 753 756 759 758 757 760 766 769 770 775 782 782 782 787 795 799 805 807 812 812 816 818 819 821 821 823 826 829 830 831
Wind_Speed
7 9 11 10 4 2 11 11 13 12 10 4 9 3 12 13 14 5 23 16 20 19 15 14 13 11 12 11 11 12 12 11 10 9 10 10 10 9 10 10 10 10 10 10 9 9 9 9 9
10 7 11 5 3 2 7 11 10 9 11 12 6 7 2 12 11 18 17 19 18 19 15 14 14 11 12 13 12 11 11 10 8 8 9 10 10 10 10 10 11 10 10 10 10 10 9 8 9
4 8 7 9 5 4 11 12 11 11 11 8 5 7 3 10 17 17 21 22 17 19 18 18 15 13 12 12 12 12 11 11 11 10 10 11 11 10 10 10 10 10 10 9 9 8 9 8 9
6 6 6 1 13 13 14 11 11 11 9 4 6 11 7 16 11 19 22 19 17 17 20 15 15 14 13 13 12 12 12 11 10 11 11 10 10 9 10 9 9 10 9 8 7 7 6 6 6
9 5 6 5 12 15 13 10 7 9 6 7 3 11 15 9 15 22 20 18 17 17 16 15 15 14 13 12 12 12 11 11 10 10 10 11 10 9 9 9 9 7 7 6 5 4 4 3 3
7 4 4 7 13 10 10 7 4 8 9 9 8 15 11 13 20 20 19 17 16 17 16 13 14 14 13 13 13 12 13 10 11 9 11 10 10 9 9 8 7 7 5 4 3 2 2 1 1
14 5 3 10 10 10 9 1 6 9 8 8 13 12 11 15 19 19 18 16 16 15 19 15 14 12 12 13 12 12 11 12 11 11 10 11 9 9 8 7 6 6 5 4 3 2 2 4 5
8 6 4 7 8 14 8 8 2 6 13 12 6 6 15 19 20 19 17 15 14 14 16 17 15 14 13 12 13 12 12 12 10 10 10 10 9 8 8 7 6 5 4 2 1 3 5 7 7
6 2 4 3 10 11 9 10 5 7 11 7 3 5 20 22 21 19 18 16 14 13 14 18 13 17 16 14 12 11 11 11 10 9 10 9 9 8 6 7 5 4 3 2 3 5 7 8 11
7 5 11 9 4 11 6 9 9 10 9 9 6 17 21 21 20 20 18 18 17 16 15 15 16 17 13 15 14 12 11 10 10 9 9 9 10 8 6 5 4 2 2 2 3 5 8 11 18
9 5 10 5 6 10 8 10 3 9 6 12 12 17 17 18 18 18 17 17 17 17 16 15 16 14 17 15 12 14 13 13 10 9 9 7 7 5 6 6 5 4 3 5 3 4 8 7 14
12 6 5 4 7 9 5 8 6 7 9 9 15 18 17 16 15 16 16 16 17 17 16 16 14 16 14 14 13 12 13 11 10 10 11 7 8 8 6 4 4 2 2 2 3 6 5 8 6
3 10 6 7 5 9 7 3 7 6 4 11 16 17 17 15 15 15 14 15 16 18 17 16 15 14 12 9 12 7 9 9 9 11 11 9 9 7 6 5 5 3 4 4 6 5 6 8 11
2 7 9 9 7 7 8 7 6 8 7 12 14 16 15 15 14 14 12 15 17 17 18 18 17 17 14 15 11 13 10 10 9 10 10 9 8 5 5 4 5 5 4 4 6 6 6 10 15
8 5 10 12 9 8 11 3 10 12 10 12 13 13 13 13 14 13 14 14 15 16 17 18 17 17 16 16 14 13 12 13 13 12 10 10 9 6 6 6 6 6 5 5 4 4 7 10 13
12 12 7 7 10 7 10 14 14 14 11 13 13 12 13 14 15 15 15 14 15 15 16 17 18 19 18 17 17 15 14 14 13 12 12 12 10 8 7 7 8 5 5 4 3 4 4 6 10
9 8 20 15 10 3 8 6 4 14 9 12 14 14 13 14 15 17 17 17 16 13 16 17 17 19 19 18 16 15 14 13 13 12 12 12 10 9 9 7 5 0 4 4 4 5 3 9 11
14 7 7 7 3 8 10 10 8 7 14 11 13 14 14 15 17 20 19 19 17 16 15 16 17 17 19 18 17 16 16 15 14 14 14 13 10 9 9 10 6 5 7 5 3 4 5 8 13
8 1 12 7 1 5 8 10 10 10 9 11 13 15 15 15 17 21 22 20 19 19 18 18 17 16 18 18 19 19 17 16 15 14 13 8 10 11 9 10 10 12 9 4 5 2 3 5 14
3 19 17 8 1 5 7 10 7 6 10 10 14 16 16 16 16 20 24 23 23 22 21 20 20 20 20 18 19 18 17 16 15 14 14 13 11 11 10 11 11 2 8 6 4 4 5 4 8
16 7 9 11 9 7 6 16 10 7 2 4 8 10 14 18 18 18 22 25 25 24 24 24 24 25 24 21 19 17 14 14 14 14 13 13 13 10 11 9 6 2 4 5 2 3 5 6 9
9 7 9 11 11 4 7 6 12 22 9 3 5 7 11 16 18 16 19 26 26 26 26 26 27 27 27 26 21 20 18 15 16 13 9 9 7 6 7 8 8 8 8 6 2 2 4 10 10
9 7 9 9 14 14 14 7 7 18 11 7 4 1 7 12 16 19 21 23 28 27 26 27 27 27 26 28 25 22 20 15 15 8 8 8 5 5 4 9 10 10 6 5 5 5 7 11 16
7 13 14 12 13 6 10 8 12 13 12 13 15 12 6 10 12 14 19 25 27 20 20 24 26 25 26 24 28 20 20 20 4 5 7 6 6 6 5 6 8 8 7 6 6 5 4 10 13
11 16 7 7 7 8 10 7 10 12 11 11 9 11 12 9 8 10 13 13 22 23 23 9 22 22 23 21 23 25 15 11 9 8 6 5 7 7 6 5 5 5 5 5 5 5 4 5 11
12 10 7 8 9 11 5 1 3 7 7 5 7 5 3 6 5 8 9 15 15 23 17 13 15 14 16 15 21 21 18 7 10 11 10 2 2 1 3 3 3 4 4 5 4 3 4 4 7
4 8 14 10 14 11 4 6 8 9 7 10 13 11 9 4 5 6 4 4 3 6 12 15 18 21 21 13 22 21 16 17 13 10 4 8 5 6 15 10 7 6 5 7 4 6 5 7 4
11 12 12 6 7 8 8 11 2 8 12 12 12 16 7 3 3 2 3 4 5 7 12 17 21 22 23 25 22 20 21 26 11 11 13 14 19 10 15 13 12 10 8 6 6 7 8 9 7
4 12 8 11 6 10 11 7 10 10 10 12 14 13 11 7 1 3 3 2 4 5 6 9 17 19 22 26 32 38 36 20 26 35 34 23 17 13 15 13 11 10 9 10 9 7 8 9 6
10 14 14 10 11 11 11 14 4 1 7 9 14 10 8 7 2 1 3 6 7 6 8 11 15 21 25 33 35 41 35 26 30 21 16 18 15 15 13 11 10 11 10 11 9 9 8 7 5
Wind_Direction
265 261 266 260 254 147 67 112 96 106 116 85 81 340 47 24 7 63 140 133 140 136 140 139 141 144 134 128 130 135 142 146 142 138 134 143 145 137 130 125 119 111 110 107 104 104 110 109 108
270 272 244 293 24 352 95 85 108 87 95 100 116 126 62 65 72 124 119 131 142 133 139 142 148 148 140 135 138 138 142 150 149 144 152 146 139 135 128 128 121 116 113 110 100 101 105 112 111
265 274 275 130 243 42 95 85 86 94 125 156 111 20 20 93 116 134 128 140 149 134 138 138 147 148 138 137 143 142 145 148 154 151 149 148 140 137 126 123 119 118 118 116 108 103 99 102 105
273 207 236 326 68 78 93 96 113 125 135 168 111 93 90 122 115 126 140 142 141 136 129 141 143 142 141 145 143 145 146 143 143 143 146 139 132 132 130 125 124 120 121 121 116 117 111 112 109
246 263 270 92 88 85 79 85 112 124 131 139 184 116 116 107 113 134 141 143 143 139 125 140 145 146 148 148 141 143 145 143 146 151 146 135 138 135 131 125 121 127 123 128 128 125 111 117 116
244 264 298 124 95 107 95 100 110 99 124 114 116 122 122 133 138 142 145 151 147 144 134 144 150 152 148 145 150 151 152 149 155 151 139 142 145 153 143 134 127 122 126 131 140 152 185 201 230
269 219 119 111 118 112 94 310 99 109 126 143 138 135 128 153 149 148 150 159 151 147 141 151 157 155 149 154 156 154 152 148 148 149 152 152 154 145 142 139 134 130 135 139 154 186 235 252 254
258 270 110 139 136 106 111 85 80 93 76 114 177 146 160 151 157 150 155 156 156 156 149 153 154 160 163 164 165 163 163 155 154 155 156 162 162 157 158 143 139 145 147 157 218 254 265 260 250
239 267 253 83 46 116 144 122 96 89 122 154 64 148 143 151 157 157 161 158 163 171 157 156 162 167 165 162 169 164 162 159 164 168 169 169 165 166 179 166 181 172 181 217 259 276 275 271 245
152 273 90 48 14 112 158 119 112 136 157 133 143 98 130 158 164 166 172 169 169 177 165 169 169 159 174 167 161 173 177 175 175 172 173 181 178 162 149 172 222 249 290 313 325 322 307 274 260
104 81 62 51 86 122 130 105 172 96 219 125 144 140 152 162 175 174 181 173 174 176 171 179 171 170 176 169 165 179 178 175 177 178 178 208 170 174 195 183 199 210 297 282 261 289 282 292 309
350 80 94 150 145 138 147 124 118 63 51 111 142 151 161 171 177 177 185 172 174 176 177 181 177 170 186 171 183 177 188 168 181 185 187 188 181 182 210 185 208 222 257 338 315 310 336 293 310
70 121 147 134 172 124 127 187 89 116 87 120 143 160 167 178 176 175 179 177 180 177 183 183 174 180 198 172 189 198 191 177 191 183 194 194 199 191 195 204 229 231 245 278 307 300 307 292 278
97 201 138 156 158 154 189 169 222 125 154 136 157 172 177 180 179 172 182 178 184 181 184 182 180 182 190 188 184 198 194 178 196 192 193 199 206 197 222 235 248 251 266 289 311 305 301 303 306
251 189 163 170 171 174 246 231 197 131 167 159 173 179 183 186 183 176 183 176 187 178 183 183 185 184 188 187 190 195 195 193 191 191 186 194 209 212 229 232 254 269 275 291 275 300 275 271 297
236 186 44 286 189 153 253 205 257 141 175 173 184 184 190 188 188 186 178 185 178 181 181 186 189 184 188 190 190 194 197 195 192 195 197 200 207 219 217 232 245 250 266 239 254 295 284 290 312
294 128 247 219 198 168 240 316 142 151 191 190 180 189 195 194 197 185 181 187 175 188 181 189 189 188 186 188 195 199 193 201 196 199 203 188 211 223 224 242 251 240 245 247 306 350 327 308 316
231 49 281 269 291 198 242 268 282 170 181 215 190 190 196 202 196 186 196 188 182 180 180 193 189 192 186 190 195 198 195 201 204 202 206 181 206 210 218 229 234 235 245 234 70 15 338 332 349
14 321 21 290 143 289 262 259 261 204 191 206 199 190 198 205 197 194 194 193 188 182 182 186 193 194 189 195 197 196 204 204 210 209 208 215 224 205 216 231 222 222 209 84 43 341 358 350 2
258 36 278 59 70 304 293 321 275 219 205 217 209 194 196 201 209 195 192 197 199 189 188 187 191 191 197 202 203 206 206 207 213 212 201 213 220 227 222 233 250 1 108 109 110 28 342 324 360
325 10 4 331 312 261 284 354 153 133 294 202 248 239 202 199 201 195 193 200 200 201 192 195 194 190 193 200 203 211 226 236 220 223 203 208 220 222 232 242 241 259 194 159 175 285 333 338 323
165 5 321 329 305 175 236 169 25 321 137 162 244 253 251 212 205 197 196 197 207 205 200 200 197 196 197 199 197 204 207 220 229 231 209 136 168 170 225 227 205 171 159 179 210 217 349 349 323
28 325 299 291 280 94 266 311 180 218 36 54 73 240 259 252 224 209 188 200 207 210 207 203 197 203 202 198 205 198 214 214 233 165 130 136 123 120 170 176 174 172 181 193 195 238 311 297 293
313 273 253 239 247 120 56 339 92 56 36 27 16 360 2 305 243 236 214 182 208 194 207 206 193 196 205 205 206 207 199 223 219 172 176 190 200 178 186 181 189 196 195 196 240 249 299 282 268
236 286 269 245 220 66 48 313 19 54 52 42 20 9 0 341 275 239 242 228 179 199 206 219 178 182 203 222 204 209 208 214 232 198 227 228 208 208 184 222 211 202 207 196 204 197 197 253 277
306 344 305 313 323 346 264 278 38 82 115 106 27 56 15 345 284 268 232 221 218 157 184 195 166 165 194 212 230 187 181 179 216 165 98 349 305 294 246 210 196 193 212 226 198 192 158 205 245
305 260 1 306 267 288 320 23 300 103 180 19 8 348 5 48 339 313 273 17 248 236 206 183 187 196 198 179 203 198 181 156 183 134 197 294 259 260 254 226 208 246 254 237 210 164 188 164 192
260 325 296 259 286 293 326 312 314 3 347 5 333 328 13 33 325 265 251 232 228 242 207 211 198 187 175 171 175 156 151 142 156 272 245 253 263 250 232 236 232 233 218 212 161 170 168 162 183
216 238 202 256 306 288 283 303 13 29 350 324 320 332 12 350 319 254 229 240 258 269 273 228 201 188 183 176 164 165 161 183 197 214 215 233 248 223 212 213 218 212 185 169 165 158 170 178 184
282 285 293 291 293 289 309 301 44 210 313 327 323 16 7 358 69 202 246 249 221 240 234 223 206 198 201 175 167 170 183 195 209 209 212 229 210 203 201 199 199 187 183 170 165 175 188 187 192